Regional Weather Roundup
Issued by NWS

Home | Current Version | Previous Version | Text Only | Print | Product List | Glossary On
Versions: 1 2 3 4 5 6 7 8 9 10 11 12 13 14 15 16 17 18 19 20 21 22 23 24 25 26 27 28 29 30 31 32 33 34 35 36 37 38 39 40 41 42 43 44 45 46 47 48 49 50
108
ASUS44 KLIX 181311
RWRLA
LOUISIANA WEATHER ROUNDUP
NATIONAL WEATHER SERVICE NEW ORLEANS LA
800 AM CDT SAT APR 18 2015

NOTE: "FAIR" INDICATES FEW OR NO CLOUDS BELOW 12,000 FEET WITH NO
      SIGNIFICANT WEATHER AND/OR OBSTRUCTIONS TO VISIBILITY.
      SKY/WX - SKY CONDITION AND SIGNIFICANT WEATHER.
      TMP - AIR TEMPERATURE.    DP   - DEWPOINT TEMPERATURE.
      RH  - RELATIVE HUMIDITY.  PRES - PRESSURE.
      HX  - HEAT INDEX.         WCI  - WIND CHILL INDEX.

*  THESE STATIONS ARE NOT NWS OR FAA STATIONS AND ARE NOT UNDER
   NWS QUALITY CONTROL.

LAZ040-048-061>063-065-066-069-181400-
SOUTHEAST LOUISIANA

CITY           SKY/WX    TMP DP  RH WIND       PRES   REMARKS
N.O. AUDUBON     N/A     70  70 100 MISG        N/A
N.O. INTL ARPT LGT RAIN  71  68  90 CALM      29.95R FOG
N.O. LAKEFRONT LGT RAIN  74  67  78 CALM      29.95R
SLIDELL        LGT RAIN  69  69 100 N6        29.93F
BATON ROUGE    LGT RAIN  69  67  93 SE6       29.92R
BOOTHVILLE     CLOUDY    69  68  96 CALM      29.95R FOG
BELLE CHASSE   TSTM      70  68  93 N3        29.94R FOG
BOGALUSA*      DRIZZLE   70  66  88 SE3       29.96S
GALLIANO*      LGT RAIN  69  68  98 CALM      29.96R
NEW ROADS*     LGT RAIN  69  67  96 SE7       29.91R
GONZALES*      RAIN      70  70 100 S7        29.96R
HAMMOND*       LGT RAIN  70  66  88 CALM      29.95R
HOUMA*         TSTM      70  66  88 N6        29.95R
PORT FOURCHON* PTSUNNY   72  70  94 NE10      29.96R

$$

LAZ041-044-053-054-181400-
SOUTHWEST LOUISIANA

CITY           SKY/WX    TMP DP  RH WIND       PRES   REMARKS
LAKE CHARLES   CLOUDY    69  66  90 NE5       29.87R
LAFAYETTE      LGT RAIN  70  67  90 SE8       29.89R
PATTERSON      CLOUDY    70  66  88 E6        29.98R
SALT POINT       N/A     68  67  96 SE5       29.96R
NEW IBERIA     RAIN      70  66  87 SE14      29.93S
CHENAULT AIRPK PTSUNNY   68  66  94 CALM      29.88R

$$

LAZ027-028-181400-
CENTRAL LOUISIANA

CITY           SKY/WX    TMP DP  RH WIND       PRES   REMARKS
FORT POLK      CLOUDY    67  66  96 SE6       29.87R
ALEXANDRIA INT CLOUDY    68  67  96 SE3       29.86S
ALEXANDRIA     CLOUDY    67  66  97 CALM      29.88R

$$

LAZ001-002-181400-
NORTHWEST LOUISIANA

CITY           SKY/WX    TMP DP  RH WIND       PRES   REMARKS
SHREVEPORT     CLOUDY    68  65  90 CALM      29.88R
BARKSDALE AFB  CLOUDY    68  64  88 NE1       29.88R
DTN SHREVEPORT CLOUDY    67  63  87 CALM      29.89R

$$

LAZ014-016-181400-
NORTHEAST LOUISIANA

CITY           SKY/WX    TMP DP  RH WIND       PRES   REMARKS
MONROE         CLOUDY    68  66  93 E6        29.91R
TALLULAH       CLOUDY    67  63  87 E9        29.90S

$$




USA.gov is the U.S. government's official web portal to all federal, state and local government web resources and services.